• In Belarus
  • List of Countries
  • For 7 days
  • Water Temperature
  • Satellite Maps
  • Weather Map
  • Weather Widgets
  • user-avatar
    Login

    Hourly Weather Krasnaya Zvezda

    Today, 20 April, Friday

    Time Temperature Precipitation Wind Pressure Humidity
    00:00 +7°C° 0.3 mm 6 mps 739 mmHg 87%
    01:00 +5°C° 0.1 mm 7 mps 740 mmHg 87%
    02:00 +5°C° 0.1 mm 7 mps 740 mmHg 87%
    03:00 +4°C° 0 mm 6 mps 740 mmHg 89%
    04:00 +4°C° 0 mm 6 mps 741 mmHg 90%
    05:00 +4°C° 0 mm 6 mps 741 mmHg 90%
    06:00 +4°C° 0 mm 7 mps 742 mmHg 91%
    07:00 +4°C° 0 mm 7 mps 742 mmHg 89%
    08:00 +4°C° 0 mm 7 mps 743 mmHg 87%
    09:00 +5°C° 0 mm 7 mps 743 mmHg 83%
    10:00 +5°C° 0 mm 7 mps 744 mmHg 81%
    11:00 +5°C° 0 mm 7 mps 744 mmHg 79%
    12:00 +6°C° 0 mm 7 mps 745 mmHg 77%
    13:00 +6°C° 0 mm 7 mps 745 mmHg 75%
    14:00 +6°C° 0 mm 7 mps 745 mmHg 73%
    15:00 +8°C° 0 mm 6 mps 746 mmHg 71%
    16:00 +7°C° 0 mm 5 mps 746 mmHg 72%
    17:00 +7°C° 0 mm 5 mps 746 mmHg 72%
    18:00 +7°C° 0 mm 4 mps 746 mmHg 73%
    19:00 +7°C° 0 mm 3 mps 746 mmHg 77%
    20:00 +6°C° 0 mm 2 mps 746 mmHg 80%
    21:00 +6°C° 0 mm 1 mps 746 mmHg 84%
    22:00 +6°C° 0 mm 1 mps 746 mmHg 85%
    23:00 +5°C° 0 mm 1 mps 746 mmHg 86%

    Tomorrow, 21 April, Saturday

    Time Temperature Precipitation Wind Pressure Humidity
    00:00 +5°C° 0 mm 1 mps 745 mmHg 87%
    01:00 +4°C° 0 mm 2 mps 745 mmHg 87%
    02:00 +3°C° 0 mm 3 mps 745 mmHg 87%
    03:00 +3°C° 0 mm 3 mps 744 mmHg 87%
    04:00 +3°C° 0 mm 4 mps 743 mmHg 88%
    05:00 +3°C° 0 mm 5 mps 743 mmHg 88%
    06:00 +3°C° 0 mm 5 mps 742 mmHg 88%
    07:00 +4°C° 0.2 mm 6 mps 741 mmHg 85%
    08:00 +5°C° 0.2 mm 6 mps 740 mmHg 81%
    09:00 +6°C° 0.2 mm 7 mps 739 mmHg 78%
    10:00 +9°C° 0 mm 7 mps 738 mmHg 74%
    11:00 +11°C° 0 mm 8 mps 737 mmHg 69%
    12:00 +13°C° 0 mm 8 mps 736 mmHg 64%
    13:00 +15°C° 0 mm 9 mps 735 mmHg 60%
    14:00 +17°C° 0 mm 9 mps 734 mmHg 56%
    15:00 +18°C° 0 mm 9 mps 733 mmHg 52%
    16:00 +17°C° 0.1 mm 9 mps 732 mmHg 56%
    17:00 +17°C° 0.1 mm 8 mps 731 mmHg 59%
    18:00 +16°C° 0.1 mm 8 mps 730 mmHg 62%
    19:00 +15°C° 0.9 mm 8 mps 729 mmHg 65%
    20:00 +12°C° 0.9 mm 8 mps 729 mmHg 69%
    21:00 +11°C° 0.9 mm 8 mps 729 mmHg 72%
    22:00 +9°C° 0 mm 8 mps 729 mmHg 70%
    23:00 +7°C° 0 mm 8 mps 729 mmHg 69%

    Day after tomorrow, 22 April, Sunday

    Time Temperature Precipitation Wind Pressure Humidity
    00:00 +5°C° 0 mm 8 mps 730 mmHg 68%
    01:00 +5°C° 0 mm 8 mps 730 mmHg 69%
    02:00 +3°C° 0 mm 9 mps 729 mmHg 70%
    03:00 +3°C° 0 mm 9 mps 729 mmHg 71%
    04:00 +3°C° 0 mm 9 mps 729 mmHg 70%
    05:00 +3°C° 0 mm 9 mps 729 mmHg 70%
    06:00 +2°C° 0 mm 10 mps 729 mmHg 69%
    07:00 +2°C° 0.1 mm 10 mps 729 mmHg 68%
    08:00 +2°C° 0.1 mm 10 mps 730 mmHg 67%
    09:00 +2°C° 0.1 mm 11 mps 730 mmHg 66%
    10:00 +2°C° 0.1 mm 10 mps 731 mmHg 65%
    11:00 +2°C° 0.1 mm 10 mps 731 mmHg 64%
    12:00 +3°C° 0.1 mm 10 mps 732 mmHg 63%
    13:00 +3°C° 0.1 mm 10 mps 732 mmHg 63%
    14:00 +3°C° 0.1 mm 9 mps 733 mmHg 62%
    15:00 +3°C° 0.1 mm 9 mps 733 mmHg 61%
    16:00 +2°C° 0 mm 9 mps 734 mmHg 61%
    17:00 +2°C° 0 mm 9 mps 734 mmHg 61%
    18:00 +2°C° 0 mm 8 mps 735 mmHg 61%
    19:00 +2°C° 0 mm 7 mps 736 mmHg 63%
    20:00 0°C° 0 mm 7 mps 736 mmHg 66%
    21:00 -1°C° 0 mm 6 mps 737 mmHg 68%
    22:00 -2°C° 0 mm 6 mps 737 mmHg 70%
    23:00 -2°C° 0 mm 6 mps 738 mmHg 72%

    23 April, Monday

    Time Temperature Precipitation Wind Pressure Humidity
    00:00 -2°C° 0 mm 5 mps 738 mmHg 74%
    01:00 -2°C° 0 mm 5 mps 738 mmHg 75%
    02:00 -3°C° 0 mm 6 mps 739 mmHg 75%
    03:00 -3°C° 0 mm 6 mps 739 mmHg 76%
    04:00 -3°C° 0 mm 6 mps 739 mmHg 75%
    05:00 -3°C° 0 mm 6 mps 740 mmHg 74%
    06:00 -3°C° 0 mm 7 mps 740 mmHg 74%
    07:00 -3°C° 0 mm 7 mps 740 mmHg 69%
    08:00 -2°C° 0 mm 7 mps 740 mmHg 65%
    09:00 -2°C° 0 mm 7 mps 741 mmHg 60%
    10:00 -1°C° 0 mm 7 mps 741 mmHg 57%
    11:00 0°C° 0 mm 7 mps 741 mmHg 53%
    12:00 +2°C° 0 mm 7 mps 742 mmHg 49%
    13:00 +3°C° 0 mm 7 mps 742 mmHg 47%
    14:00 +3°C° 0 mm 7 mps 742 mmHg 45%
    15:00 +4°C° 0 mm 7 mps 742 mmHg 43%
    16:00 +4°C° 0 mm 6 mps 742 mmHg 44%
    17:00 +3°C° 0 mm 6 mps 743 mmHg 46%
    18:00 +3°C° 0 mm 5 mps 743 mmHg 47%
    19:00 +3°C° 0 mm 4 mps 743 mmHg 53%
    20:00 +2°C° 0 mm 3 mps 744 mmHg 58%
    21:00 +2°C° 0 mm 2 mps 744 mmHg 63%
    22:00 +1°C° 0 mm 2 mps 745 mmHg 66%
    23:00 -1°C° 0 mm 2 mps 745 mmHg 68%

    24 April, Tuesday

    Time Temperature Precipitation Wind Pressure Humidity
    00:00 -1°C° 0 mm 2 mps 745 mmHg 70%
    01:00 +1°C° 0 mm 1 mps 745 mmHg 71%
    02:00 +1°C° 0 mm 1 mps 746 mmHg 72%
    03:00 0°C° 0 mm 1 mps 746 mmHg 73%
    04:00 +1°C° 0 mm 1 mps 746 mmHg 72%
    05:00 +1°C° 0 mm 1 mps 746 mmHg 71%
    06:00 +1°C° 0 mm 1 mps 746 mmHg 70%
    07:00 +2°C° 0 mm 1 mps 747 mmHg 63%
    08:00 +4°C° 0 mm 1 mps 747 mmHg 57%
    09:00 +5°C° 0 mm 1 mps 747 mmHg 51%
    10:00 +6°C° 0 mm 1 mps 747 mmHg 48%
    11:00 +7°C° 0 mm 1 mps 746 mmHg 45%
    12:00 +7°C° 0 mm 2 mps 746 mmHg 42%
    13:00 +9°C° 0 mm 1 mps 746 mmHg 41%
    14:00 +9°C° 0 mm 1 mps 746 mmHg 39%
    15:00 +10°C° 0 mm 1 mps 746 mmHg 38%
    16:00 +10°C° 0 mm 1 mps 745 mmHg 39%
    17:00 +10°C° 0 mm 1 mps 745 mmHg 40%
    18:00 +10°C° 0 mm 1 mps 745 mmHg 41%
    19:00 +8°C° 0 mm 2 mps 745 mmHg 45%
    20:00 +6°C° 0 mm 2 mps 745 mmHg 49%
    21:00 +5°C° 0 mm 2 mps 745 mmHg 53%
    22:00 +4°C° 0 mm 3 mps 744 mmHg 55%
    23:00 +4°C° 0 mm 3 mps 744 mmHg 57%

    25 April, Wednesday

    Time Temperature Precipitation Wind Pressure Humidity
    00:00 +3°C° 0 mm 3 mps 744 mmHg 59%
    01:00 +3°C° 0.1 mm 3 mps 744 mmHg 62%
    02:00 +3°C° 0.1 mm 3 mps 744 mmHg 65%
    03:00 +2°C° 0.1 mm 3 mps 744 mmHg 68%
    04:00 +2°C° 0.1 mm 3 mps 743 mmHg 70%
    05:00 +3°C° 0.1 mm 4 mps 743 mmHg 72%
    06:00 +3°C° 0.1 mm 4 mps 743 mmHg 74%
    07:00 +4°C° 0.1 mm 4 mps 743 mmHg 73%
    08:00 +5°C° 0.1 mm 5 mps 743 mmHg 71%
    09:00 +6°C° 0.1 mm 5 mps 743 mmHg 70%
    10:00 +7°C° 0.2 mm 6 mps 743 mmHg 69%
    11:00 +8°C° 0.2 mm 6 mps 742 mmHg 69%
    12:00 +9°C° 0.2 mm 6 mps 742 mmHg 69%
    13:00 +9°C° 0.3 mm 6 mps 742 mmHg 72%
    14:00 +9°C° 0.3 mm 6 mps 742 mmHg 76%
    15:00 +9°C° 0.3 mm 6 mps 742 mmHg 79%
    16:00 +9°C° 0 mm 6 mps 741 mmHg 79%
    17:00 +9°C° 0 mm 5 mps 741 mmHg 78%
    18:00 +10°C° 0 mm 5 mps 741 mmHg 78%
    19:00 +9°C° 0 mm 5 mps 740 mmHg 80%
    20:00 +9°C° 0 mm 5 mps 740 mmHg 83%
    21:00 +8°C° 0 mm 5 mps 740 mmHg 85%
    22:00 +8°C° 0 mm 5 mps 739 mmHg 85%
    23:00 +8°C° 0 mm 6 mps 739 mmHg 85%
    Show more